• In Deutschland
  • Länderverzeichnis
  • Für 7 Tage
  • Wassertemperatur
  • Satellitenkarten
  • Wetterkarte
  • Widgets
  • user-avatar
    Anmelden

    Stündliche Wetter San Luis

    Heute, 26 Juli, Mittwoch

    Zeit Temperatur Niederschläge Wind Luftdruck Luftfeuchtigkeit
    00:00 +12°C° 0 mm 2 m/S 700 mmHg 78%
    01:00 +12°C° 0 mm 2 m/S 700 mmHg 79%
    02:00 +12°C° 0 mm 2 m/S 700 mmHg 80%
    03:00 +12°C° 0 mm 2 m/S 700 mmHg 81%
    04:00 +12°C° 0 mm 2 m/S 700 mmHg 83%
    05:00 +12°C° 0 mm 2 m/S 700 mmHg 84%
    06:00 +12°C° 0 mm 1 m/S 700 mmHg 83%
    07:00 +12°C° 0 mm 1 m/S 700 mmHg 83%
    08:00 +12°C° 0 mm 1 m/S 701 mmHg 82%
    09:00 +14°C° 0 mm 1 m/S 701 mmHg 74%
    10:00 +16°C° 0 mm 1 m/S 702 mmHg 66%
    11:00 +19°C° 0 mm 1 m/S 702 mmHg 57%
    12:00 +20°C° 0 mm 2 m/S 702 mmHg 53%
    13:00 +21°C° 0 mm 2 m/S 702 mmHg 49%
    14:00 +22°C° 0 mm 3 m/S 701 mmHg 45%
    15:00 +22°C° 0 mm 3 m/S 701 mmHg 45%
    16:00 +21°C° 0 mm 3 m/S 700 mmHg 45%
    17:00 +21°C° 0 mm 3 m/S 700 mmHg 45%
    18:00 +20°C° 0 mm 3 m/S 699 mmHg 52%
    19:00 +18°C° 0 mm 3 m/S 699 mmHg 59%
    20:00 +15°C° 0 mm 4 m/S 699 mmHg 66%
    21:00 +15°C° 0 mm 4 m/S 699 mmHg 67%
    22:00 +14°C° 0 mm 3 m/S 699 mmHg 67%
    23:00 +14°C° 0 mm 3 m/S 699 mmHg 68%

    Morgen, 27 Juli, Donnerstag

    Zeit Temperatur Niederschläge Wind Luftdruck Luftfeuchtigkeit
    00:00 +14°C° 0 mm 4 m/S 699 mmHg 72%
    01:00 +14°C° 0 mm 5 m/S 698 mmHg 75%
    02:00 +15°C° 0 mm 6 m/S 698 mmHg 78%
    03:00 +14°C° 0 mm 5 m/S 697 mmHg 80%
    04:00 +14°C° 0 mm 5 m/S 697 mmHg 82%
    05:00 +14°C° 0 mm 5 m/S 697 mmHg 84%
    06:00 +14°C° 0 mm 5 m/S 697 mmHg 85%
    07:00 +14°C° 0 mm 5 m/S 697 mmHg 85%
    08:00 +14°C° 0 mm 5 m/S 697 mmHg 86%
    09:00 +17°C° 0 mm 6 m/S 697 mmHg 76%
    10:00 +20°C° 0 mm 7 m/S 698 mmHg 67%
    11:00 +22°C° 0 mm 8 m/S 698 mmHg 58%
    12:00 +23°C° 0 mm 8 m/S 697 mmHg 54%
    13:00 +24°C° 0 mm 9 m/S 696 mmHg 50%
    14:00 +26°C° 0 mm 9 m/S 696 mmHg 47%
    15:00 +26°C° 0 mm 8 m/S 695 mmHg 47%
    16:00 +26°C° 0 mm 7 m/S 695 mmHg 47%
    17:00 +26°C° 0 mm 6 m/S 695 mmHg 47%
    18:00 +23°C° 0 mm 5 m/S 695 mmHg 51%
    19:00 +21°C° 0 mm 5 m/S 695 mmHg 55%
    20:00 +19°C° 0 mm 4 m/S 695 mmHg 59%
    21:00 +19°C° 0 mm 4 m/S 695 mmHg 57%
    22:00 +19°C° 0 mm 5 m/S 695 mmHg 55%
    23:00 +19°C° 0 mm 5 m/S 695 mmHg 53%

    übermorgen, 28 Juli, Freitag

    Zeit Temperatur Niederschläge Wind Luftdruck Luftfeuchtigkeit
    00:00 +19°C° 0 mm 5 m/S 695 mmHg 53%
    01:00 +19°C° 0 mm 5 m/S 694 mmHg 54%
    02:00 +17°C° 0 mm 5 m/S 694 mmHg 54%
    03:00 +17°C° 0 mm 5 m/S 694 mmHg 55%
    04:00 +17°C° 0 mm 4 m/S 693 mmHg 55%
    05:00 +17°C° 0 mm 4 m/S 693 mmHg 55%
    06:00 +17°C° 0 mm 4 m/S 694 mmHg 56%
    07:00 +17°C° 0 mm 4 m/S 694 mmHg 56%
    08:00 +17°C° 0 mm 4 m/S 694 mmHg 56%
    09:00 +19°C° 0 mm 4 m/S 695 mmHg 49%
    10:00 +21°C° 0 mm 5 m/S 696 mmHg 42%
    11:00 +25°C° 0 mm 5 m/S 696 mmHg 35%
    12:00 +25°C° 0 mm 5 m/S 696 mmHg 34%
    13:00 +26°C° 0 mm 5 m/S 696 mmHg 32%
    14:00 +27°C° 0 mm 4 m/S 695 mmHg 31%
    15:00 +26°C° 0 mm 4 m/S 695 mmHg 33%
    16:00 +26°C° 0 mm 4 m/S 695 mmHg 34%
    17:00 +25°C° 0 mm 3 m/S 695 mmHg 36%
    18:00 +22°C° 0 mm 3 m/S 695 mmHg 43%
    19:00 +20°C° 0 mm 3 m/S 695 mmHg 50%
    20:00 +18°C° 0 mm 3 m/S 696 mmHg 57%
    21:00 +18°C° 0 mm 3 m/S 696 mmHg 60%
    22:00 +17°C° 0 mm 3 m/S 696 mmHg 63%
    23:00 +17°C° 0 mm 2 m/S 696 mmHg 66%

    29 Juli, Samstag

    Zeit Temperatur Niederschläge Wind Luftdruck Luftfeuchtigkeit
    00:00 +16°C° 0 mm 3 m/S 696 mmHg 69%
    01:00 +16°C° 0 mm 3 m/S 696 mmHg 71%
    02:00 +14°C° 0 mm 3 m/S 696 mmHg 74%
    03:00 +14°C° 0 mm 3 m/S 696 mmHg 78%
    04:00 +13°C° 0 mm 4 m/S 697 mmHg 81%
    05:00 +13°C° 0 mm 4 m/S 697 mmHg 85%
    06:00 +13°C° 0 mm 5 m/S 698 mmHg 84%
    07:00 +13°C° 0 mm 5 m/S 699 mmHg 84%
    08:00 +11°C° 0 mm 6 m/S 699 mmHg 83%
    09:00 +13°C° 0 mm 6 m/S 700 mmHg 79%
    10:00 +13°C° 0 mm 6 m/S 701 mmHg 75%
    11:00 +13°C° 0 mm 6 m/S 701 mmHg 70%
    12:00 +13°C° 0 mm 6 m/S 701 mmHg 68%
    13:00 +13°C° 0 mm 6 m/S 701 mmHg 66%
    14:00 +13°C° 0 mm 6 m/S 701 mmHg 63%
    15:00 +12°C° 0 mm 7 m/S 701 mmHg 65%
    16:00 +11°C° 0 mm 7 m/S 701 mmHg 66%
    17:00 +10°C° 0 mm 7 m/S 701 mmHg 68%
    18:00 +10°C° 0 mm 7 m/S 701 mmHg 69%
    19:00 +9°C° 0 mm 7 m/S 702 mmHg 69%
    20:00 +9°C° 0 mm 7 m/S 703 mmHg 70%
    21:00 +9°C° 0 mm 7 m/S 703 mmHg 70%
    22:00 +9°C° 0 mm 7 m/S 703 mmHg 69%
    23:00 +9°C° 0 mm 7 m/S 704 mmHg 69%

    30 Juli, Sonntag

    Zeit Temperatur Niederschläge Wind Luftdruck Luftfeuchtigkeit
    00:00 +8°C° 0 mm 7 m/S 704 mmHg 69%
    01:00 +8°C° 0 mm 7 m/S 704 mmHg 70%
    02:00 +8°C° 0 mm 7 m/S 704 mmHg 71%
    03:00 +6°C° 0 mm 7 m/S 704 mmHg 73%
    04:00 +6°C° 0 mm 7 m/S 704 mmHg 75%
    05:00 +7°C° 0 mm 6 m/S 704 mmHg 77%
    06:00 +6°C° 0 mm 7 m/S 704 mmHg 76%
    07:00 +5°C° 0 mm 7 m/S 705 mmHg 75%
    08:00 +5°C° 0 mm 7 m/S 705 mmHg 74%
    09:00 +5°C° 0 mm 7 m/S 706 mmHg 71%
    10:00 +6°C° 0 mm 7 m/S 706 mmHg 67%
    11:00 +6°C° 0 mm 7 m/S 707 mmHg 64%
    12:00 +6°C° 0 mm 7 m/S 707 mmHg 64%
    13:00 +6°C° 0 mm 7 m/S 706 mmHg 63%
    14:00 +8°C° 0 mm 7 m/S 706 mmHg 63%
    15:00 +6°C° 0 mm 7 m/S 706 mmHg 65%
    16:00 +6°C° 0 mm 7 m/S 706 mmHg 68%
    17:00 +5°C° 0 mm 7 m/S 706 mmHg 70%
    18:00 +5°C° 0 mm 7 m/S 706 mmHg 73%
    19:00 +4°C° 0 mm 7 m/S 706 mmHg 75%
    20:00 +4°C° 0 mm 6 m/S 707 mmHg 77%
    21:00 +4°C° 0 mm 6 m/S 707 mmHg 78%
    22:00 +4°C° 0 mm 6 m/S 707 mmHg 79%
    23:00 +5°C° 0 mm 5 m/S 707 mmHg 79%

    31 Juli, Montag

    Zeit Temperatur Niederschläge Wind Luftdruck Luftfeuchtigkeit
    00:00 +3°C° 0 mm 5 m/S 706 mmHg 80%
    01:00 +3°C° 0 mm 5 m/S 706 mmHg 81%
    02:00 +3°C° 0 mm 5 m/S 706 mmHg 82%
    03:00 +4°C° 0 mm 4 m/S 705 mmHg 84%
    04:00 +4°C° 0 mm 4 m/S 705 mmHg 85%
    05:00 +3°C° 0 mm 4 m/S 704 mmHg 87%
    06:00 +4°C° 0 mm 4 m/S 704 mmHg 86%
    07:00 +4°C° 0 mm 4 m/S 704 mmHg 85%
    08:00 +4°C° 0 mm 4 m/S 704 mmHg 85%
    09:00 +6°C° 0 mm 4 m/S 704 mmHg 77%
    10:00 +7°C° 0 mm 4 m/S 704 mmHg 69%
    11:00 +10°C° 0 mm 4 m/S 704 mmHg 61%
    12:00 +11°C° 0 mm 4 m/S 703 mmHg 56%
    13:00 +12°C° 0 mm 3 m/S 702 mmHg 52%
    14:00 +14°C° 0 mm 3 m/S 701 mmHg 48%
    15:00 +14°C° 0 mm 3 m/S 700 mmHg 48%
    16:00 +14°C° 0 mm 3 m/S 699 mmHg 49%
    17:00 +14°C° 0 mm 3 m/S 699 mmHg 49%
    18:00 +12°C° 0 mm 3 m/S 699 mmHg 58%
    19:00 +10°C° 0 mm 4 m/S 698 mmHg 66%
    20:00 +7°C° 0 mm 4 m/S 698 mmHg 74%
    21:00 +7°C° 0 mm 4 m/S 698 mmHg 76%
    22:00 +8°C° 0 mm 3 m/S 698 mmHg 78%
    23:00 +7°C° 0 mm 3 m/S 698 mmHg 80%
    Mehr zeigen